Home   Weather   Kugluktuk   Past weeks

Flag for Canada Past Weather in Kugluktuk, Nunavut, Canada — Yesterday and Last 2 Weeks

Now
34 °F

Light rain. Low clouds.


Feels Like: 20 °F
Forecast: 29 / 33 °F
Wind: 31 mph from North

Location: Coppermine

Current Time: Sep 28, 2016 at 2:47:11 AM

Latest Report: Sep 28, 2016 at 2:00 AM


Visibility: 2 mi

Pressure: 29.65 "Hg

Humidity: 93%

Dew Point: 32 °F

Location of KugluktukLocation

Past Weather in Kugluktuk — Graph

°F

Kugluktuk Temperature Yesterday

Maximum temperature yesterday: 43 °F (at 12:00 AM)
Minimum temperature yesterday: 32 °F (at 7:00 PM)
Average temperature yesterday: 39 °F

High & Low Weather Summary for the Past Weeks

 TemperatureHumidityPressure
High70 °F (Sep 23, 4:00 PM)100% (Sep 17, 7:00 AM)30.08 "Hg (Sep 17, 7:00 AM)
Low23 °F (Sep 14, 2:00 AM)33% (Sep 23, 4:00 PM)29.27 "Hg (Sep 17, 12:00 PM)
Average40 °F77%29.75 "Hg
* Reported Sep 13 1:00 AM — Sep 28 1:00 AM, Kugluktuk, Weather by CustomWeather, © 2016

Note: Actual official high and low records may vary slightly from our data, if they occured in-between our weather recording intervals... More about our weather records

Advertising

Kugluktuk Weather History for the Previous 24 Hours

Scroll right to see more
 ConditionsComfort  
Time TempWeatherWind HumidityBarometerVisibility
1:00 AM
Wed, Sep 28
34 °FLight rain. Mostly cloudy.28 mph93%29.64 "Hg2 mi
12:00 AM34 °FLight rain. Mostly cloudy.31 mph93%29.64 "Hg2 mi
11:00 PM
Tue, Sep 27
34 °FLight rain. Mostly cloudy.26 mph100%29.65 "Hg4 mi
10:00 PM34 °FLight rain. Low clouds.28 mph100%29.67 "Hg3 mi
9:00 PM34 °FLight rain. Mostly cloudy.25 mph93%29.68 "Hg2 mi
8:00 PM34 °FLight rain. Low clouds.24 mph93%29.70 "Hg2 mi
7:00 PM32 °FLight snow. Low clouds.18 mph100%29.72 "Hg1 mi
6:00 PM34 °FLight rain. Fog.18 mph93%29.72 "Hg2 mi
5:00 PM36 °FLight rain. Fog.29 mph93%29.70 "Hg7 mi
4:00 PM36 °FLight rain. Fog.26 mph93%29.72 "Hg7 mi
3:00 PM37 °FLight rain. Fog.21 mph93%29.75 "Hg7 mi
2:00 PM39 °FLight rain. Fog.14 mph93%29.76 "Hg8 mi
1:00 PM39 °FLight rain. Fog.13 mph93%29.78 "Hg8 mi
12:00 PM41 °FLight rain. Fog.14 mph93%29.78 "Hg8 mi
11:00 AM41 °FLight rain. Cloudy.12 mph93%29.78 "Hg12 mi
10:54 AM41 °FLight rain. Cloudy.9 mph93%29.78 "Hg12 mi
10:00 AM41 °FCloudy.9 mph93%29.79 "Hg12 mi
9:00 AM41 °FMore clouds than sun.10 mph93%29.80 "Hg12 mi
8:00 AM41 °FOvercast.10 mph93%29.80 "Hg10 mi
7:00 AM41 °FOvercast.12 mph93%29.80 "Hg10 mi
6:00 AM41 °FPassing clouds.10 mph93%29.81 "Hg15 mi
5:00 AM43 °FPassing clouds.7 mph81%29.81 "Hg15 mi
4:00 AM41 °FOvercast.7 mph93%29.83 "Hg15 mi
3:00 AM41 °FPassing clouds.12 mph93%29.83 "Hg15 mi
2:49 AM41 °FOvercast.10 mph93%29.83 "Hg15 mi
2:00 AM41 °FLight rain. Overcast.10 mph93%29.83 "Hg10 mi
Weather by CustomWeather, © 2016

See weather overviewHow to use our weather pages